Погода в Щебзаводе

Россия / Кемеровская область (Кузбасс)     54°11′48″N   86°10′37″E
темп.,
°C
ветер,
м/с
пор.,
м/с
влажн.,
%
обл.,
%
осадки,
мм/ч
давл.,
гПа
погр.,
м
27 января, чт
чт2701:00−11ююз3790100 0.1 1030244
04:00−17ю349515 0.0 103251
07:00−16ю349612 0.0 103465
10:00−16ю359513 0.0 103587
13:00−11ююз4682100 0.0 1035683
16:00−11ююз3585100 0.0 1036598
19:00−15ююз229576 0.1 103829
22:00−19ю229961 0.0 103922
28 января, пт
пт2801:00−17ю2297100 0.0 103833
04:00−18ю2297100 0.1 103731
07:00−17ю229797 0.1 103732
10:00−19ю229781 0.0 103829
13:00−11ююз248668 0.0 1035343
16:00−10зсз0188100 0.0 1034133
19:00−18ю229936 0.1 103610
22:00−20ю2210076 0.0 103511
29 января, сб
сб2901:00−21ю2110028 0.0 10359
04:00−21ююв22100100 0.0 103510
07:00−21ююв2299100 0.0 103511
10:00−16ююв2295100 0.0 103445
13:00−10вюв128678 0.0 1033168
16:00−9в119125 0.0 103359
19:00−17ююв229712 0.0 103513
22:00−19ю219912 0.0 10359
30 января, вс
вс3001:00−20ююв22996 0.0 10359
04:00−20ююв22975 0.0 103511
07:00−20ююв22979 0.0 103511
10:00−18ююв229621 0.0 103423
13:00−9юв237830 0.0 1032136
16:00−8вюв228787 0.0 103149
19:00−14ююв229337 0.0 103217
22:00−17ю229485 0.0 103210
31 января, пн
пн3101:00−17ю118994 0.0 10329
04:00−17ююв228681 0.0 10329
07:00−17ююв22885 0.0 103210
10:00−15ююв22885 0.0 103216
13:00−5ююв24782 0.0 1031211
16:00−4ююз12885 0.0 103175
19:00−13ю229523 0.0 103310
22:00−15ю229674 0.0 103415